Home   Weather   Cuzco   Past weeks

Flag for Peru Past Weather in Cuzco, Cusco, Peru — Yesterday and Last 2 Weeks

Now
68 °F

Passing clouds.


Feels Like: 68 °F
Forecast: N/A
Wind: 16 mph from North

Location: Cuzco Airport

Current Time: Aug 31, 2016 at 4:58:18 PM

Latest Report: Aug 31, 2016 at 4:00 PM


Visibility: N/A

Pressure: 30.30 "Hg (20.44 "Hg at 3379m altitude)

Humidity: 10%

Dew Point: 10 °F

Location of CuzcoLocation

Past Weather in Cuzco — Graph

°F

Cuzco Temperature Yesterday

Maximum temperature yesterday: 70 °F (at 1:00 PM)
Minimum temperature yesterday: 39 °F (at 5:00 AM)
Average temperature yesterday: 54 °F

High & Low Weather Summary for the Past Weeks

 TemperatureHumidityPressure
High75 °F (Aug 23, 2:00 PM)81% (Aug 18, 3:00 AM)30.63 "Hg (Aug 18, 3:00 AM)
Low34 °F (Aug 29, 6:00 AM)7% (Aug 29, 1:00 PM)30.27 "Hg (Aug 31, 3:00 PM)
Average54 °F49%30.48 "Hg
* Reported Aug 16 3:00 PM — Aug 31 3:00 PM, Cuzco, Weather by CustomWeather, © 2016

Note: Actual official high and low records may vary slightly from our data, if they occured in-between our weather recording intervals... More about our weather records

Advertising

Cuzco Weather History for the Previous 24 Hours

Scroll right to see more
 ConditionsComfort  
Time TempWeatherWind HumidityBarometerVisibility
3:00 PM
Wed, Aug 31
72 °FPassing clouds.12 mph9%30.27 "HgN/A
2:00 PM73 °FPassing clouds.9 mph14%30.30 "HgN/A
1:00 PM72 °FScattered clouds.8 mph15%30.36 "HgN/A
12:00 PM72 °FPassing clouds.5 mph15%30.42 "HgN/A
11:00 AM66 °FPassing clouds.3 mph26%30.45 "HgN/A
10:00 AM63 °FPassing clouds.5 mph34%30.48 "HgN/A
9:00 AM57 °FScattered clouds.2 mph44%30.51 "HgN/A
8:00 AM52 °FScattered clouds.2 mph54%30.51 "HgN/A
7:00 AM45 °FScattered clouds.3 mph66%30.51 "HgN/A
6:00 AM41 °FScattered clouds.No wind70%30.48 "HgN/A
5:00 AM43 °FPassing clouds.No wind66%30.45 "HgN/A
4:00 AM43 °FPassing clouds.3 mph66%30.42 "HgN/A
3:00 AM45 °FClear.3 mph61%30.42 "HgN/A
2:00 AM45 °FClear.No wind61%30.45 "HgN/A
1:00 AM46 °FClear.No wind57%30.45 "HgN/A
12:00 AM46 °FClear.3 mph57%30.48 "HgN/A
11:00 PM
Tue, Aug 30
48 °FClear.6 mph54%30.48 "HgN/A
10:00 PM54 °FClear.6 mph51%30.45 "HgN/A
9:00 PM54 °FPassing clouds.7 mph47%30.45 "HgN/A
8:00 PM55 °FPassing clouds.9 mph44%30.42 "HgN/A
7:00 PM59 °FPassing clouds.12 mph36%30.36 "HgN/A
6:00 PM63 °FOvercast.8 mph25%30.33 "HgN/A
5:00 PM66 °FOvercast.10 mph17%30.30 "HgN/A
4:00 PM70 °FOvercast.13 mph12%30.30 "HgN/A
Weather by CustomWeather, © 2016

See weather overviewHow to use our weather pages